Weather in Murom

Russia / Vladimir Oblast     55°34′45″N   42°03′08″E
temp.,
°C
wind,
m/s
gust,
m/s
humid.,
%
clouds,
%
prec.,
mm/h
press.,
hPa
HPBL,
m
24 september, fri
fri2400:00+9sse3797100 1.5 1011279
03:00+8sse379689 2.1 1010227
06:00+8sse3795100 0.0 1009227
09:00+9s488418 0.1 1009508
12:00+13s586257 0.1 10091440
15:00+12s5862100 0.4 10081415
18:00+10sse357486 0.3 1009109
21:00+7se3585100 0.3 100975
25 september, sat
sat2500:00+9se3982100 0.0 1009251
03:00+7sse339039 0.0 100944
06:00+8ese2480100 0.0 100978
09:00+10se2781100 0.1 1009277
12:00+13sse3561100 0.0 1009686
15:00+14s355599 0.1 10091197
18:00+11s3375100 0.5 100951
21:00+9ssw358566 0.6 100984
26 september, sun
sun2600:00+9s248699 0.0 1009121
03:00+9s2487100 0.0 1008115
06:00+8s2688100 0.0 1007176
09:00+11sse347398 0.0 1006303
12:00+13s3461100 0.3 10061269
15:00+11se0180100 1.1 1007115
18:00+10ne3787100 0.4 1008225
21:00+9nne4109098 0.6 1010358
27 september, mon
mon2700:00+9nne489187 1.3 1012347
03:00+6n4996100 1.3 1014244
06:00+8n51094100 0.0 1015537
09:00+8n5994100 0.1 1016655
12:00+9nne5890100 0.1 1018637
15:00+10nne5884100 0.1 1019735
18:00+9nne4990100 0.0 1021543
21:00+8nne4992100 0.1 1023602
28 september, tue
tue2800:00+7ne4888100 0.0 1025517
03:00+7ne4787100 0.1 1027447
06:00+6ne47849 0.0 1028426
09:00+7ne45705 0.0 1030478
12:00+10ne455054 0.0 10301115
15:00+11ne33445 0.0 10301159
18:00+7nne345872 0.0 103155
21:00+4ne336729 0.0 103343